• In Austria
  • List of Countries
  • For 7 days
  • Water Temperature
  • Satellite Maps
  • Weather Map
  • News
  • Weather Widgets
  • user-avatar
    Login

    Hourly Weather Klagenfurt

    Today, 25 February, Sunday

    Time Temperature Precipitation Wind Pressure Humidity
    00:00 -9°C° 0 mm 2 mps 688 mmHg 90%
    01:00 -10°C° 0 mm 2 mps 688 mmHg 91%
    02:00 -12°C° 0 mm 2 mps 688 mmHg 90%
    03:00 -12°C° 0 mm 2 mps 688 mmHg 90%
    04:00 -13°C° 0 mm 2 mps 688 mmHg 89%
    05:00 -13°C° 0 mm 2 mps 688 mmHg 88%
    06:00 -14°C° 0 mm 2 mps 688 mmHg 87%
    07:00 -16°C° 0 mm 3 mps 688 mmHg 87%
    08:00 -14°C° 0 mm 3 mps 688 mmHg 81%
    09:00 -13°C° 0 mm 3 mps 688 mmHg 74%
    10:00 -12°C° 0 mm 3 mps 688 mmHg 68%
    11:00 -10°C° 0 mm 3 mps 688 mmHg 66%
    12:00 -10°C° 0 mm 4 mps 688 mmHg 64%
    13:00 -9°C° 0 mm 4 mps 688 mmHg 63%
    14:00 -10°C° 0 mm 4 mps 687 mmHg 65%
    15:00 -10°C° 0 mm 4 mps 687 mmHg 67%
    16:00 -10°C° 0 mm 4 mps 687 mmHg 69%
    17:00 -12°C° 0 mm 3 mps 687 mmHg 74%
    18:00 -13°C° 0 mm 3 mps 687 mmHg 79%
    19:00 -13°C° 0 mm 2 mps 687 mmHg 85%
    20:00 -14°C° 0 mm 2 mps 687 mmHg 85%
    21:00 -14°C° 0 mm 2 mps 687 mmHg 86%
    22:00 -15°C° 0 mm 2 mps 687 mmHg 87%
    23:00 -15°C° 0 mm 2 mps 687 mmHg 87%

    Tomorrow, 26 February, Monday

    Time Temperature Precipitation Wind Pressure Humidity
    00:00 -16°C° 0 mm 2 mps 686 mmHg 87%
    01:00 -16°C° 0 mm 2 mps 686 mmHg 87%
    02:00 -16°C° 0 mm 2 mps 686 mmHg 87%
    03:00 -17°C° 0 mm 2 mps 686 mmHg 87%
    04:00 -17°C° 0 mm 2 mps 685 mmHg 87%
    05:00 -18°C° 0 mm 2 mps 685 mmHg 86%
    06:00 -18°C° 0 mm 2 mps 685 mmHg 85%
    07:00 -18°C° 0 mm 2 mps 685 mmHg 84%
    08:00 -17°C° 0 mm 3 mps 685 mmHg 78%
    09:00 -16°C° 0 mm 3 mps 685 mmHg 71%
    10:00 -14°C° 0 mm 3 mps 685 mmHg 65%
    11:00 -14°C° 0 mm 4 mps 685 mmHg 64%
    12:00 -12°C° 0 mm 4 mps 685 mmHg 63%
    13:00 -11°C° 0 mm 4 mps 685 mmHg 62%
    14:00 -11°C° 0.1 mm 4 mps 684 mmHg 65%
    15:00 -10°C° 0.1 mm 3 mps 684 mmHg 67%
    16:00 -10°C° 0.1 mm 3 mps 684 mmHg 69%
    17:00 -12°C° 0.1 mm 3 mps 684 mmHg 74%
    18:00 -13°C° 0.1 mm 3 mps 684 mmHg 78%
    19:00 -13°C° 0.1 mm 2 mps 684 mmHg 83%
    20:00 -13°C° 0.1 mm 2 mps 684 mmHg 83%
    21:00 -14°C° 0.1 mm 2 mps 684 mmHg 83%
    22:00 -14°C° 0.1 mm 2 mps 684 mmHg 83%
    23:00 -14°C° 0.1 mm 2 mps 684 mmHg 83%

    Day after tomorrow, 27 February, Tuesday

    Time Temperature Precipitation Wind Pressure Humidity
    00:00 -15°C° 0.1 mm 2 mps 684 mmHg 83%
    01:00 -15°C° 0.1 mm 2 mps 684 mmHg 83%
    02:00 -15°C° 0 mm 2 mps 683 mmHg 83%
    03:00 -15°C° 0 mm 2 mps 683 mmHg 83%
    04:00 -13°C° 0 mm 1 mps 683 mmHg 83%
    05:00 -14°C° 0 mm 1 mps 683 mmHg 84%
    06:00 -14°C° 0 mm 1 mps 683 mmHg 84%
    07:00 -14°C° 0 mm 1 mps 683 mmHg 84%
    08:00 -13°C° 0 mm 1 mps 683 mmHg 79%
    09:00 -11°C° 0 mm 1 mps 683 mmHg 74%
    10:00 -12°C° 0 mm 2 mps 683 mmHg 69%
    11:00 -9°C° 0 mm 1 mps 683 mmHg 67%
    12:00 -8°C° 0 mm 1 mps 683 mmHg 65%
    13:00 -6°C° 0 mm 1 mps 683 mmHg 63%
    14:00 -7°C° 0 mm 1 mps 683 mmHg 65%
    15:00 -7°C° 0 mm 1 mps 683 mmHg 67%
    16:00 -7°C° 0 mm 1 mps 683 mmHg 69%
    17:00 -8°C° 0.1 mm 1 mps 683 mmHg 76%
    18:00 -10°C° 0.1 mm 1 mps 684 mmHg 82%
    19:00 -11°C° 0.1 mm 1 mps 684 mmHg 88%
    20:00 -12°C° 0.1 mm 1 mps 684 mmHg 89%
    21:00 -12°C° 0.1 mm 1 mps 684 mmHg 91%
    22:00 -13°C° 0.1 mm 1 mps 685 mmHg 92%
    23:00 -13°C° 0 mm 1 mps 685 mmHg 91%

    28 February, Wednesday

    Time Temperature Precipitation Wind Pressure Humidity
    00:00 -14°C° 0 mm 1 mps 685 mmHg 91%
    01:00 -14°C° 0 mm 1 mps 685 mmHg 91%
    02:00 -15°C° 0 mm 1 mps 684 mmHg 90%
    03:00 -15°C° 0 mm 1 mps 684 mmHg 89%
    04:00 -16°C° 0 mm 1 mps 684 mmHg 88%
    05:00 -16°C° 0 mm 1 mps 684 mmHg 88%
    06:00 -16°C° 0 mm 1 mps 685 mmHg 87%
    07:00 -16°C° 0 mm 1 mps 685 mmHg 86%
    08:00 -14°C° 0 mm 1 mps 686 mmHg 80%
    09:00 -11°C° 0 mm 1 mps 686 mmHg 73%
    10:00 -8°C° 0 mm 1 mps 687 mmHg 67%
    11:00 -7°C° 0 mm 1 mps 687 mmHg 65%
    12:00 -6°C° 0 mm 1 mps 687 mmHg 63%
    13:00 -4°C° 0 mm 1 mps 687 mmHg 61%
    14:00 -4°C° 0 mm 1 mps 687 mmHg 63%
    15:00 -4°C° 0 mm 1 mps 687 mmHg 65%
    16:00 -6°C° 0 mm 1 mps 687 mmHg 67%
    17:00 -8°C° 0 mm 1 mps 687 mmHg 74%
    18:00 -9°C° 0 mm 1 mps 687 mmHg 81%
    19:00 -11°C° 0 mm 1 mps 688 mmHg 88%
    20:00 -12°C° 0 mm 1 mps 688 mmHg 88%
    21:00 -12°C° 0 mm 1 mps 688 mmHg 89%
    22:00 -12°C° 0 mm 1 mps 688 mmHg 90%
    23:00 -12°C° 0 mm 1 mps 688 mmHg 90%

    1 March, Thursday

    Time Temperature Precipitation Wind Pressure Humidity
    00:00 -13°C° 0 mm 1 mps 688 mmHg 90%
    01:00 -13°C° 0 mm 1 mps 687 mmHg 90%
    02:00 -13°C° 0 mm 1 mps 687 mmHg 90%
    03:00 -13°C° 0 mm 1 mps 687 mmHg 90%
    04:00 -14°C° 0 mm 1 mps 686 mmHg 89%
    05:00 -14°C° 0 mm 1 mps 686 mmHg 89%
    06:00 -14°C° 0 mm 1 mps 686 mmHg 88%
    07:00 -14°C° 0 mm 1 mps 686 mmHg 87%
    08:00 -11°C° 0 mm 1 mps 686 mmHg 82%
    09:00 -9°C° 0 mm 1 mps 686 mmHg 77%
    10:00 -7°C° 0 mm 1 mps 686 mmHg 72%
    11:00 -6°C° 0 mm 1 mps 685 mmHg 71%
    12:00 -4°C° 0 mm 1 mps 685 mmHg 70%
    13:00 -3°C° 0 mm 1 mps 684 mmHg 70%
    14:00 -2°C° 0 mm 1 mps 684 mmHg 73%
    15:00 -2°C° 0 mm 1 mps 683 mmHg 76%
    16:00 -2°C° 0 mm 1 mps 683 mmHg 79%
    17:00 -3°C° 0.1 mm 1 mps 683 mmHg 83%
    18:00 -4°C° 0.1 mm 1 mps 683 mmHg 87%
    19:00 -6°C° 0.1 mm 1 mps 683 mmHg 90%
    20:00 -6°C° 0.1 mm 1 mps 683 mmHg 91%
    21:00 -6°C° 0.1 mm 1 mps 683 mmHg 91%
    22:00 -6°C° 0.1 mm 1 mps 683 mmHg 91%
    23:00 -6°C° 0.1 mm 1 mps 682 mmHg 91%

    2 March, Friday

    Time Temperature Precipitation Wind Pressure Humidity
    00:00 -6°C° 0.1 mm 1 mps 682 mmHg 91%
    01:00 -6°C° 0.1 mm 1 mps 682 mmHg 91%
    02:00 -6°C° 0 mm 1 mps 681 mmHg 91%
    03:00 -6°C° 0 mm 1 mps 681 mmHg 91%
    04:00 -6°C° 0 mm 1 mps 680 mmHg 91%
    05:00 -6°C° 0 mm 1 mps 680 mmHg 91%
    06:00 -6°C° 0 mm 1 mps 680 mmHg 91%
    07:00 -4°C° 0 mm 1 mps 679 mmHg 91%
    08:00 -3°C° 0 mm 1 mps 680 mmHg 89%
    09:00 -1°C° 0 mm 1 mps 680 mmHg 87%
    10:00 0°C° 0 mm 1 mps 680 mmHg 84%
    11:00 +1°C° 0 mm 1 mps 679 mmHg 85%
    12:00 +2°C° 0 mm 1 mps 679 mmHg 85%
    13:00 +3°C° 0 mm 1 mps 679 mmHg 85%
    14:00 +3°C° 0 mm 1 mps 678 mmHg 87%
    15:00 +3°C° 0 mm 1 mps 678 mmHg 88%
    16:00 +3°C° 0 mm 1 mps 678 mmHg 89%
    17:00 +2°C° 0 mm 1 mps 678 mmHg 91%
    18:00 +1°C° 0 mm 1 mps 678 mmHg 93%
    19:00 0°C° 0 mm 1 mps 679 mmHg 95%
    20:00 0°C° 0.1 mm 1 mps 679 mmHg 95%
    21:00 0°C° 0.1 mm 1 mps 679 mmHg 94%
    22:00 0°C° 0.1 mm 1 mps 679 mmHg 94%
    23:00 0°C° 0.4 mm 1 mps 679 mmHg 93%
    Show more